Погода в Вила-Реал

Португалия     41°17′53″N   7°44′56″W
темп.,
°C
ветер,
м/с
пор.,
м/с
влажн.,
%
обл.,
%
осадки,
мм/ч
давл.,
гПа
погр.,
м
3 марта, ср
ср300:00+8вюв01841 0.0 102823
03:00+8в118620 0.0 102829
06:00+7в128921 0.0 102853
09:00+9в22829 0.0 1028220
12:00+14вюв235917 0.0 1027653
15:00+16в235171 0.0 10241198
18:00+14всв126254 0.7 1023311
21:00+12вюв11720 0.0 102423
4 марта, чт
чт400:00+11в127725 0.0 102336
03:00+9в1282100 0.0 102153
06:00+9в2386100 0.0 1020104
09:00+10в2378100 0.0 1019208
12:00+13вюв2456100 0.0 1018896
15:00+15в2552100 0.9 10151061
18:00+13юв2560100 2.4 1014660
21:00+11юв1272100 0.3 101588
5 марта, пт
пт500:00+10всв1274100 0.3 101543
03:00+9всв227899 0.3 101583
06:00+8всв238099 0.3 101592
09:00+10всв2568100 0.0 1016474
12:00+14в355193 0.0 1015843
15:00+18всв364149 0.0 10141816
18:00+16ссв244947 0.6 1014367
21:00+13ссв245941 1.0 1017124
6 марта, сб
сб600:00+11всв366521 1.0 1019443
03:00+9всв23650 0.0 1019269
06:00+8всв24661 0.0 1020295
09:00+9в24578 0.0 1021491
12:00+13в23454 0.0 1020744
15:00+16в22380 0.0 10191037
18:00+14в12440 0.0 1019660
21:00+12в11530 0.0 102123
7 марта, вс
вс700:00+10в11570 0.0 102222
03:00+9в12620 0.0 102147
06:00+8в12690 0.0 102169
09:00+9вюв22614 0.0 1021262
12:00+14юв11442 0.0 1020721
15:00+16зюз12381 0.0 10181529
18:00+13з33621 0.1 1017682
21:00+10з22810 0.0 1019214